Uitslag Triatlon Roeselare top 3

# Naam Totaal
1 Vandendriessche Kenneth 00:58:09 84.70
2 Veramme Koen 00:58:24 83.26
3 Verstraete Eduard 00:58:45 82.92
4 Van De Walle Vincent 00:59:09 82.54
5 Van Daele Tim 00:59:57 81.77
6 Verkempinck Ruben 01:00:21 81.38
7 Vandenbroele Niels 01:00:44 81.02
8 Lagache Stijn 01:06:00 75.95
9 Priem Whytic 01:06:41 75.29
10 Kerkhof Stefaan 01:06:53 75.10
11 Spoelders Kurt 01:07:07 74.88
12 Vercaigne Dieter 01:07:24 74.60
13 Roelants Geert 01:08:40 73.38
14 Vandorpe Peter 01:08:41 73.37
15 Goethals Angelo 01:08:44 73.32
16 Vanderper Bruno 01:09:07 72.95
17 Decaestecker Kris 01:09:21 72.73
18 Defauw lieven 01:09:47 72.31
19 Fieuw Christoph 01:09:53 72.21
20 Deveughele Piet 01:10:32 71.59
21 Labaere Brian 01:10:51 71.28
22 Dousy Frederik 01:11:01 71.12
23 Mertens Thijs 01:11:23 70.77
24 Parein Filiep 01:11:28 70.69
25 Piccavet Niels 01:11:37 70.55
26 Bruggeman Edwin 01:11:39 70.51
27 Cambier Luc 01:11:42 70.47
28 Soenen Joachim 01:11:45 70.42
29 Van Hoecke Ann-sophie 01:11:48 70.46
30 Vandemaele Steven 01:12:08 70.05
31 Haerijnck Christophe 01:12:10 70.02
32 Stroobant Evert 01:12:23 69.81
33 Wittouck Yves 01:13:12 69.02
34 Holvoet Pieter 01:13:15 68.98
35 Marey Chris 01:13:24 68.83
36 De Vleeschauwer Dimitri 01:13:26 68.80
37 Calmeyn Klaas 01:13:29 68.75
38 Serruys Kevin 01:13:55 67.76
39 Vanhuyse Lode 01:13:56 68.32
40 Vansteenkiste Stephan 01:13:56 68.32
41 Deburghgraeve Steven 01:14:02 68.22
42 Vandevelde Liesbeth 01:14:45 67.17
43 Tyteca Walter 01:14:59 67.31
44 Wybo Toon 01:15:07 67.18
45 Geldhof Wesley 01:15:24 66.91
46 Derieuw Gianni 01:15:30 66.81
47 Franssen Whoopy 01:15:50 66.40
48 Verstraete Pieter 01:16:09 66.19
49 Himpe Mathieu 01:16:30 65.85
50 Werbrouck Vincent 01:16:39 65.71
51 Bardyn Dave 01:16:52 65.50
52 Debrauwer Brecht 01:16:55 65.45
53 Godderis Luc 01:17:09 65.22
54 Vanclooster Hanne 01:17:10 65.45
55 Tanghe Heleen 01:17:26 65.26
56 Decock Diederik 01:17:30 64.89
57 Waeyaert Dieter 01:17:32 64.86
58 Bertrand Bruno 01:17:34 64.82
59 De Roover Willem 01:17:49 64.58
60 Goegebeur Tom 01:18:17 64.13
61 Borra Wouter 01:18:35 63.85
62 Bardyn Dieter 01:18:40 63.77
63 Tempelaere Brecht 01:19:00 63.44
64 Nachtergaele Sven 01:19:27 63.01
65 Casteleyn Davy 01:19:28 63.00
66 Boeckx Christophe 01:19:45 62.72
67 Ryckaert Alexander 01:19:47 62.69
68 Bruneel Kennith 01:20:14 62.26
69 Denolf Peter 01:20:17 62.21
70 verlinde michael 01:20:18 62.19
71 Demeyer Koen 01:20:33 61.95
72 Dewitte Virginie 01:20:40 62.97
73 Vanderschueren Marc 01:20:44 61.78
74 Ver Elst Nele 01:21:03 62.70
75 Meire Domien 01:21:18 61.23
76 Vanderhaeghe Dries 01:21:28 61.07
77 Vandevelde Marlies 01:21:44 62.21
78 Courtens Bruce 01:21:47 60.77
79 Taillieu Mieke 01:22:11 61.89
80 Van Zandycke Lies 01:22:17 61.82
81 Renier Bruno 01:22:21 60.22
82 Van Wayenbergh Kurt 01:23:03 59.55
83 Snauwaert Steve 01:23:15 59.36
84 Declerck Sofie 01:23:16 61.12
85 Desmet Mark 01:24:40 57.99
86 Desmet Tom 01:24:51 57.82
87 Handsaeme Dieter 01:24:55 57.75
88 Verhaeghe Thomas 01:25:33 57.14
89 Samyn Heleen 01:25:43 59.38
90 Crevits Domien 01:25:55 56.79
91 Bastiaesnsen Cindy 01:25:55 59.24
92 rondelez thijs 01:26:04 56.65
93 Vergote Bert 01:26:07 56.60
94 Vannieuwenhuyse Pieterjan 01:26:34 56.17
95 Geerardyn Gino 01:26:41 56.05
96 De Loof Birger 01:26:47 55.96
97 Naessens Kjell 01:26:52 58.57
98 Kint Edwin 01:27:19 55.44
99 Jacobs Sophie 01:27:50 57.88
100 Himpe Emelie 01:28:09 57.66
101 Werbrouck Ulrike 01:28:13 57.61
102 DELEU Sabine 01:28:14 57.60
103 Hauspie Jozefien 01:28:15 57.59
104 Wolleghem Thomas 01:28:18 54.50
105 Goossens Martin 01:28:40 54.15
106 delporte kathleen 01:28:53 57.14
107 Verhagen Emmanuelle 01:29:27 53.39
108 Geeraerts Jan 01:29:28 53.38
109 De Laere Gregory 01:29:36 53.25
110 Bossuyt Lindsey 01:29:48 56.49
111 Notredame Filip 01:30:30 52.38
112 Demulder Luc 01:30:47 52.11
113 Bataillie Maarten 01:31:14 51.68
114 Vandemoortele Natalie 01:32:41 54.44
115 Breyne Tom 01:33:03 49.93
116 Demey Lukas 01:33:07 49.87
117 Vansteenkiste Alexander 01:33:24 49.59
118 Vranken Evelyn 01:33:55 53.56
119 verlinde lindsay 01:33:58 53.53
120 Boudry Frédéric 01:34:42 48.34
121 Penet Davy 01:37:01 46.11
122 Cobbaert Kimberley 01:37:09 51.27
123 Tack Mieke 01:37:56 50.71
124 Billiouw Stefan 01:41:37 41.19
125 Gheysen Bieke 01:41:53 47.91
126 Vanneste Heidi 01:47:11 43.65

Reacties

  • Nog geen reacties beschikbaar